Time,TemperatureF,DewpointF,PressureIn,WindDirection,WindDirectionDegrees,WindSpeedMPH,WindSpeedGustMPH,Humidity,HourlyPrecipIn,Conditions,Clouds,dailyrainin,SoftwareType,DateUTC
2013-07-01 00:00:00,72.1,71.8,29.94,South,189,0.0,0.0,99,0.00,,,0.00,Wunderground v.1.15,2013-07-01 04:00:00,
2013-07-01 00:01:00,72.1,71.8,29.94,South,189,0.0,0.0,99,0.00,,,0.00,Wunderground v.1.15,2013-07-01 04:01:00,
2013-07-01 00:02:00,72.1,71.8,29.94,South,189,0.0,0.0,99,0.00,,,0.00,Wunderground v.1.15,2013-07-01 04:02:00,
2013-07-01 00:03:00,72.0,71.7,29.94,South,189,0.0,0.0,99,0.00,,,0.00,Wunderground v.1.15,2013-07-01 04:03:00,
2013-07-01 00:06:00,72.1,71.8,29.94,SW,215,0.0,1.0,99,0.00,,,0.00,Wunderground v.1.15,2013-07-01 04:06:00,
2013-07-01 00:08:00,72.1,71.8,29.94,SW,233,0.0,1.0,99,0.00,,,0.00,Wunderground v.1.15,2013-07-01 04:08:00,
2013-07-01 00:13:00,72.1,71.8,29.93,SW,233,0.0,0.0,99,0.00,,,0.00,Wunderground v.1.15,2013-07-01 04:13:00,
2013-07-01 00:18:00,72.0,71.7,29.94,SW,233,0.0,0.0,99,0.00,,,0.00,Wunderground v.1.15,2013-07-01 04:18:00,
2013-07-01 00:23:00,72.0,71.7,29.94,South,172,1.0,1.0,99,0.00,,,0.00,Wunderground v.1.15,2013-07-01 04:23:00,
2013-07-01 00:28:00,72.1,71.8,29.94,ENE,62,0.0,1.0,99,0.00,,,0.00,Wunderground v.1.15,2013-07-01 04:28:00,
2013-07-01 00:34:00,72.2,71.9,29.94,ENE,72,0.0,0.0,99,0.00,,,0.00,Wunderground v.1.15,2013-07-01 04:34:00,
2013-07-01 00:39:00,72.2,71.9,29.94,ENE,72,0.0,0.0,99,0.00,,,0.00,Wunderground v.1.15,2013-07-01 04:39:00,
2013-07-01 00:44:00,72.1,71.8,29.93,ENE,75,0.0,0.0,99,0.00,,,0.00,Wunderground v.1.15,2013-07-01 04:44:00,
2013-07-01 00:50:00,72.1,71.8,29.93,NNE,22,1.0,1.0,99,0.00,,,0.00,Wunderground v.1.15,2013-07-01 04:50:00,
2013-07-01 00:55:00,72.1,71.8,29.93,NNE,28,2.0,2.0,99,0.00,,,0.00,Wunderground v.1.15,2013-07-01 04:55:00,
2013-07-01 01:00:00,72.2,71.9,29.93,South,172,0.0,0.0,99,0.00,,,0.00,Wunderground v.1.15,2013-07-01 05:00:00,
2013-07-01 01:06:00,72.3,72.0,29.94,SSW,195,0.0,1.0,99,0.00,,,0.00,Wunderground v.1.15,2013-07-01 05:06:00,
2013-07-01 01:11:00,72.3,72.0,29.94,SSW,192,0.0,0.0,99,0.00,,,0.00,Wunderground v.1.15,2013-07-01 05:11:00,
2013-07-01 01:16:00,72.3,72.0,29.94,SSW,192,0.0,0.0,99,0.00,,,0.00,Wunderground v.1.15,2013-07-01 05:16:00,
2013-07-01 01:21:00,72.3,72.0,29.94,SSW,197,1.0,1.0,99,0.00,,,0.00,Wunderground v.1.15,2013-07-01 05:21:00,
2013-07-01 01:26:00,72.3,72.0,29.94,SSW,197,0.0,1.0,99,0.00,,,0.00,Wunderground v.1.15,2013-07-01 05:26:00,
2013-07-01 01:32:00,72.3,72.0,29.94,SSW,212,0.0,0.0,99,0.00,,,0.00,Wunderground v.1.15,2013-07-01 05:32:00,
2013-07-01 01:37:00,72.4,72.1,29.94,SSW,212,1.0,1.0,99,0.00,,,0.00,Wunderground v.1.15,2013-07-01 05:37:00,
2013-07-01 01:42:00,72.4,72.1,29.94,South,176,0.0,2.0,99,0.00,,,0.00,Wunderground v.1.15,2013-07-01 05:42:00,
2013-07-01 01:47:00,72.3,72.0,29.94,South,176,1.0,2.0,99,0.00,,,0.00,Wunderground v.1.15,2013-07-01 05:47:00,
2013-07-01 01:52:00,72.3,72.0,29.94,South,190,0.0,1.0,99,0.00,,,0.00,Wunderground v.1.15,2013-07-01 05:52:00,
2013-07-01 01:58:00,72.4,72.1,29.94,South,180,0.0,1.0,99,0.00,,,0.00,Wunderground v.1.15,2013-07-01 05:58:00,
2013-07-01 02:03:00,72.4,72.1,29.94,South,180,0.0,1.0,99,0.00,,,0.00,Wunderground v.1.15,2013-07-01 06:03:00,
2013-07-01 02:08:00,72.4,72.1,29.94,South,180,0.0,1.0,99,0.00,,,0.00,Wunderground v.1.15,2013-07-01 06:08:00,
2013-07-01 02:13:00,72.4,72.1,29.94,SSW,200,0.0,4.0,99,0.00,,,0.00,Wunderground v.1.15,2013-07-01 06:13:00,
2013-07-01 02:18:00,72.4,72.1,29.94,SSW,200,0.0,4.0,99,0.00,,,0.00,Wunderground v.1.15,2013-07-01 06:18:00,
2013-07-01 02:23:00,72.4,72.1,29.94,SSW,205,0.0,1.0,99,0.00,,,0.00,Wunderground v.1.15,2013-07-01 06:23:00,
2013-07-01 02:28:00,72.3,72.0,29.94,SSW,205,0.0,1.0,99,0.00,,,0.00,Wunderground v.1.15,2013-07-01 06:28:00,
2013-07-01 02:33:00,72.4,72.1,29.94,South,190,0.0,5.0,99,0.00,,,0.00,Wunderground v.1.15,2013-07-01 06:33:00,
2013-07-01 02:38:00,72.4,72.1,29.94,South,190,1.0,5.0,99,0.00,,,0.00,Wunderground v.1.15,2013-07-01 06:38:00,
2013-07-01 02:43:00,72.3,72.0,29.94,South,190,0.0,1.0,99,0.00,,,0.00,Wunderground v.1.15,2013-07-01 06:43:00,
2013-07-01 02:48:00,72.2,71.9,29.94,South,190,0.0,1.0,99,0.00,,,0.00,Wunderground v.1.15,2013-07-01 06:48:00,
2013-07-01 02:53:00,72.2,71.9,29.94,South,190,0.0,0.0,99,0.00,,,0.00,Wunderground v.1.15,2013-07-01 06:53:00,
2013-07-01 02:58:00,72.2,71.9,29.94,South,190,1.0,1.0,99,0.00,,,0.00,Wunderground v.1.15,2013-07-01 06:58:00,
2013-07-01 03:03:00,72.1,71.8,29.94,South,190,0.0,1.0,99,0.00,,,0.01,Wunderground v.1.15,2013-07-01 07:03:00,
2013-07-01 03:08:00,72.0,71.7,29.94,South,190,0.0,1.0,99,0.00,,,0.01,Wunderground v.1.15,2013-07-01 07:08:00,
2013-07-01 03:13:00,72.0,71.7,29.94,South,190,0.0,0.0,99,0.00,,,0.01,Wunderground v.1.15,2013-07-01 07:13:00,
2013-07-01 03:18:00,71.9,71.6,29.94,South,190,0.0,0.0,99,0.00,,,0.01,Wunderground v.1.15,2013-07-01 07:18:00,
2013-07-01 03:23:00,71.7,71.4,29.94,South,190,0.0,0.0,99,0.00,,,0.01,Wunderground v.1.15,2013-07-01 07:23:00,
2013-07-01 03:28:00,71.6,71.3,29.94,South,190,0.0,0.0,99,0.00,,,0.01,Wunderground v.1.15,2013-07-01 07:28:00,
2013-07-01 03:33:00,71.5,71.2,29.94,South,190,0.0,0.0,99,0.00,,,0.01,Wunderground v.1.15,2013-07-01 07:33:00,
2013-07-01 03:38:00,71.4,71.1,29.94,South,190,0.0,0.0,99,0.00,,,0.01,Wunderground v.1.15,2013-07-01 07:38:00,
2013-07-01 03:43:00,71.4,71.1,29.94,South,190,0.0,1.0,99,0.00,,,0.01,Wunderground v.1.15,2013-07-01 07:43:00,
2013-07-01 03:48:00,71.3,71.0,29.94,South,190,0.0,1.0,99,0.00,,,0.01,Wunderground v.1.15,2013-07-01 07:48:00,
2013-07-01 03:53:00,71.2,70.9,29.94,South,190,0.0,0.0,99,0.00,,,0.01,Wunderground v.1.15,2013-07-01 07:53:00,
2013-07-01 03:58:00,71.1,70.8,29.94,South,190,0.0,0.0,99,0.00,,,0.01,Wunderground v.1.15,2013-07-01 07:58:00,
2013-07-01 04:03:00,71.0,70.7,29.94,South,190,0.0,0.0,99,0.00,,,0.01,Wunderground v.1.15,2013-07-01 08:03:00,
2013-07-01 04:08:00,71.0,70.7,29.94,South,190,0.0,1.0,99,0.00,,,0.01,Wunderground v.1.15,2013-07-01 08:08:00,
2013-07-01 04:13:00,71.0,70.7,29.94,South,190,0.0,2.0,99,0.00,,,0.01,Wunderground v.1.15,2013-07-01 08:13:00,
2013-07-01 04:18:00,70.9,70.6,29.94,South,190,0.0,2.0,99,0.00,,,0.01,Wunderground v.1.15,2013-07-01 08:18:00,
2013-07-01 04:23:00,70.8,70.5,29.94,South,190,0.0,2.0,99,0.00,,,0.01,Wunderground v.1.15,2013-07-01 08:23:00,
2013-07-01 04:28:00,70.7,70.4,29.94,South,190,0.0,2.0,99,0.00,,,0.01,Wunderground v.1.15,2013-07-01 08:28:00,
2013-07-01 04:33:00,70.7,70.4,29.94,South,190,0.0,0.0,99,0.00,,,0.01,Wunderground v.1.15,2013-07-01 08:33:00,
2013-07-01 04:38:00,70.6,70.3,29.94,South,190,0.0,1.0,99,0.00,,,0.01,Wunderground v.1.15,2013-07-01 08:38:00,
2013-07-01 04:44:00,70.6,70.3,29.94,South,190,0.0,0.0,99,0.00,,,0.01,Wunderground v.1.15,2013-07-01 08:44:00,
2013-07-01 04:49:00,70.6,70.3,29.94,South,190,0.0,1.0,99,0.00,,,0.01,Wunderground v.1.15,2013-07-01 08:49:00,
2013-07-01 04:54:00,70.6,70.3,29.94,South,190,0.0,0.0,99,0.00,,,0.01,Wunderground v.1.15,2013-07-01 08:54:00,
2013-07-01 04:59:00,70.6,70.3,29.94,South,190,1.0,2.0,99,0.00,,,0.01,Wunderground v.1.15,2013-07-01 08:59:00,
2013-07-01 05:04:00,70.5,70.2,29.94,South,190,0.0,1.0,99,0.00,,,0.01,Wunderground v.1.15,2013-07-01 09:04:00,
2013-07-01 05:09:00,70.5,70.2,29.95,South,190,1.0,1.0,99,0.00,,,0.01,Wunderground v.1.15,2013-07-01 09:09:00,
2013-07-01 05:14:00,70.5,70.2,29.95,South,190,0.0,1.0,99,0.00,,,0.01,Wunderground v.1.15,2013-07-01 09:14:00,
2013-07-01 05:19:00,70.5,70.2,29.95,South,190,0.0,1.0,99,0.00,,,0.01,Wunderground v.1.15,2013-07-01 09:19:00,
2013-07-01 05:24:00,70.4,70.1,29.95,South,190,0.0,2.0,99,0.00,,,0.01,Wunderground v.1.15,2013-07-01 09:24:00,
2013-07-01 05:29:00,70.4,70.1,29.95,South,190,0.0,2.0,99,0.00,,,0.01,Wunderground v.1.15,2013-07-01 09:29:00,
2013-07-01 05:34:00,70.3,70.0,29.96,South,190,1.0,2.0,99,0.00,,,0.01,Wunderground v.1.15,2013-07-01 09:34:00,
2013-07-01 05:39:00,70.4,70.1,29.96,South,190,0.0,2.0,99,0.00,,,0.01,Wunderground v.1.15,2013-07-01 09:39:00,
2013-07-01 05:44:00,70.4,70.1,29.96,South,190,0.0,1.0,99,0.00,,,0.01,Wunderground v.1.15,2013-07-01 09:44:00,
2013-07-01 05:49:00,70.4,70.1,29.96,South,190,1.0,2.0,99,0.00,,,0.01,Wunderground v.1.15,2013-07-01 09:49:00,
2013-07-01 05:54:00,70.4,70.1,29.97,South,190,0.0,2.0,99,0.00,,,0.01,Wunderground v.1.15,2013-07-01 09:54:00,
2013-07-01 05:59:00,70.4,70.1,29.97,South,190,0.0,2.0,99,0.00,,,0.01,Wunderground v.1.15,2013-07-01 09:59:00,
2013-07-01 06:04:00,70.4,70.1,29.97,South,190,0.0,1.0,99,0.00,,,0.01,Wunderground v.1.15,2013-07-01 10:04:00,
2013-07-01 06:09:00,70.4,70.1,29.97,South,190,0.0,1.0,99,0.00,,,0.01,Wunderground v.1.15,2013-07-01 10:09:00,
2013-07-01 06:14:00,70.3,70.0,29.97,South,190,0.0,2.0,99,0.00,,,0.01,Wunderground v.1.15,2013-07-01 10:14:00,
2013-07-01 06:19:00,70.3,70.0,29.97,South,190,0.0,2.0,99,0.00,,,0.01,Wunderground v.1.15,2013-07-01 10:19:00,
2013-07-01 06:24:00,70.3,70.0,29.97,South,190,0.0,0.0,99,0.00,,,0.01,Wunderground v.1.15,2013-07-01 10:24:00,
2013-07-01 06:29:00,70.2,69.9,29.97,South,190,0.0,1.0,99,0.00,,,0.01,Wunderground v.1.15,2013-07-01 10:29:00,
2013-07-01 06:34:00,70.2,69.9,29.97,South,190,0.0,0.0,99,0.00,,,0.01,Wunderground v.1.15,2013-07-01 10:34:00,
2013-07-01 06:39:00,70.2,69.9,29.97,South,190,0.0,1.0,99,0.00,,,0.01,Wunderground v.1.15,2013-07-01 10:39:00,
2013-07-01 06:44:00,70.2,69.9,29.97,South,190,0.0,1.0,99,0.00,,,0.01,Wunderground v.1.15,2013-07-01 10:44:00,
2013-07-01 06:49:00,70.2,69.9,29.97,South,190,0.0,1.0,99,0.00,,,0.01,Wunderground v.1.15,2013-07-01 10:49:00,
2013-07-01 06:54:00,70.3,70.0,29.97,South,190,0.0,0.0,99,0.00,,,0.01,Wunderground v.1.15,2013-07-01 10:54:00,
2013-07-01 06:59:00,70.4,70.1,29.97,South,190,0.0,0.0,99,0.00,,,0.01,Wunderground v.1.15,2013-07-01 10:59:00,
2013-07-01 07:04:00,70.4,70.1,29.97,South,190,0.0,0.0,99,0.00,,,0.01,Wunderground v.1.15,2013-07-01 11:04:00,
2013-07-01 07:09:00,70.6,70.3,29.97,South,190,0.0,1.0,99,0.00,,,0.01,Wunderground v.1.15,2013-07-01 11:09:00,
2013-07-01 07:14:00,70.6,70.3,29.97,South,190,0.0,1.0,99,0.00,,,0.01,Wunderground v.1.15,2013-07-01 11:14:00,
2013-07-01 07:19:00,70.6,70.3,29.97,South,190,0.0,1.0,99,0.00,,,0.01,Wunderground v.1.15,2013-07-01 11:19:00,
2013-07-01 07:24:00,70.6,70.3,29.97,South,190,0.0,1.0,99,0.00,,,0.01,Wunderground v.1.15,2013-07-01 11:24:00,
2013-07-01 07:29:00,70.5,70.2,29.97,South,190,0.0,1.0,99,0.00,,,0.01,Wunderground v.1.15,2013-07-01 11:29:00,
2013-07-01 07:34:00,70.4,70.1,29.97,South,190,0.0,1.0,99,0.00,,,0.01,Wunderground v.1.15,2013-07-01 11:34:00,
2013-07-01 07:39:00,70.4,70.1,29.97,South,190,0.0,1.0,99,0.00,,,0.01,Wunderground v.1.15,2013-07-01 11:39:00,
2013-07-01 07:44:00,70.4,70.1,29.98,South,190,1.0,1.0,99,0.00,,,0.01,Wunderground v.1.15,2013-07-01 11:44:00,
2013-07-01 07:49:00,70.3,70.0,29.98,South,190,0.0,2.0,99,0.00,,,0.01,Wunderground v.1.15,2013-07-01 11:49:00,
2013-07-01 07:54:00,70.2,69.9,29.98,South,190,0.0,2.0,99,0.00,,,0.01,Wunderground v.1.15,2013-07-01 11:54:00,
2013-07-01 07:59:00,70.1,69.8,29.98,SSE,154,0.0,3.0,99,0.00,,,0.01,Wunderground v.1.15,2013-07-01 11:59:00,
2013-07-01 08:04:00,70.1,69.8,29.98,SSE,154,0.0,1.0,99,0.00,,,0.01,Wunderground v.1.15,2013-07-01 12:04:00,
2013-07-01 08:09:00,70.0,69.7,29.98,SSE,154,0.0,1.0,99,0.00,,,0.01,Wunderground v.1.15,2013-07-01 12:09:00,
2013-07-01 08:14:00,70.0,69.7,29.98,SSE,154,0.0,0.0,99,0.00,,,0.01,Wunderground v.1.15,2013-07-01 12:14:00,
2013-07-01 08:19:00,70.1,69.8,29.98,SSE,154,0.0,1.0,99,0.00,,,0.01,Wunderground v.1.15,2013-07-01 12:19:00,
2013-07-01 08:24:00,70.2,69.9,29.98,SSE,154,0.0,2.0,99,0.00,,,0.01,Wunderground v.1.15,2013-07-01 12:24:00,
2013-07-01 08:29:00,70.3,70.0,29.98,SSE,154,0.0,2.0,99,0.00,,,0.01,Wunderground v.1.15,2013-07-01 12:29:00,
2013-07-01 08:34:00,70.4,70.1,29.98,SSE,154,0.0,1.0,99,0.00,,,0.01,Wunderground v.1.15,2013-07-01 12:34:00,
2013-07-01 08:39:00,70.4,70.1,29.98,SSE,154,0.0,1.0,99,0.00,,,0.01,Wunderground v.1.15,2013-07-01 12:39:00,
2013-07-01 08:44:00,70.5,70.2,29.98,SSE,154,0.0,3.0,99,0.00,,,0.01,Wunderground v.1.15,2013-07-01 12:44:00,
2013-07-01 08:49:00,70.5,70.2,29.98,SSE,154,0.0,3.0,99,0.00,,,0.01,Wunderground v.1.15,2013-07-01 12:49:00,
2013-07-01 08:54:00,70.5,70.2,29.98,SSE,162,1.0,1.0,99,0.00,,,0.01,Wunderground v.1.15,2013-07-01 12:54:00,
2013-07-01 08:59:00,70.5,70.5,29.98,SSE,163,0.0,2.0,100,0.00,,,0.01,Wunderground v.1.15,2013-07-01 12:59:00,
2013-07-01 09:04:00,70.6,70.6,29.99,SSE,163,0.0,1.0,100,0.00,,,0.01,Wunderground v.1.15,2013-07-01 13:04:00,
2013-07-01 09:09:00,70.7,70.7,29.99,SSE,163,0.0,1.0,100,0.00,,,0.01,Wunderground v.1.15,2013-07-01 13:09:00,
2013-07-01 09:14:00,70.8,70.8,29.99,SSE,163,0.0,1.0,100,0.00,,,0.01,Wunderground v.1.15,2013-07-01 13:14:00,
2013-07-01 09:19:00,71.0,71.0,29.99,SSE,163,0.0,1.0,100,0.00,,,0.01,Wunderground v.1.15,2013-07-01 13:19:00,
2013-07-01 09:24:00,71.0,70.7,29.99,SSE,163,0.0,1.0,99,0.00,,,0.01,Wunderground v.1.15,2013-07-01 13:24:00,
2013-07-01 09:29:00,71.1,70.8,29.99,SSE,163,0.0,2.0,99,0.00,,,0.01,Wunderground v.1.15,2013-07-01 13:29:00,
2013-07-01 09:34:00,71.2,70.9,29.99,SSE,164,0.0,1.0,99,0.00,,,0.01,Wunderground v.1.15,2013-07-01 13:34:00,
2013-07-01 09:39:00,71.3,71.3,29.99,SSE,164,0.0,1.0,100,0.00,,,0.01,Wunderground v.1.15,2013-07-01 13:39:00,
2013-07-01 09:44:00,71.5,71.5,29.99,SSE,168,0.0,2.0,100,0.00,,,0.01,Wunderground v.1.15,2013-07-01 13:44:00,
2013-07-01 09:49:00,71.8,71.8,29.99,SSE,168,1.0,2.0,100,0.00,,,0.01,Wunderground v.1.15,2013-07-01 13:49:00,
2013-07-01 09:54:00,71.9,71.9,29.99,South,169,1.0,2.0,100,0.00,,,0.01,Wunderground v.1.15,2013-07-01 13:54:00,
2013-07-01 09:59:00,71.9,71.9,29.99,NE,51,0.0,2.0,100,0.00,,,0.01,Wunderground v.1.15,2013-07-01 13:59:00,
2013-07-01 10:04:00,71.9,71.9,29.99,NE,51,0.0,1.0,100,0.00,,,0.01,Wunderground v.1.15,2013-07-01 14:04:00,
2013-07-01 10:09:00,71.9,71.9,29.99,NE,51,0.0,2.0,100,0.00,,,0.01,Wunderground v.1.15,2013-07-01 14:09:00,
2013-07-01 10:14:00,72.1,72.1,30.00,NE,51,0.0,2.0,100,0.00,,,0.01,Wunderground v.1.15,2013-07-01 14:14:00,
2013-07-01 10:19:00,72.1,72.1,30.00,East,98,0.0,2.0,100,0.00,,,0.01,Wunderground v.1.15,2013-07-01 14:19:00,
2013-07-01 10:24:00,72.2,72.2,30.00,ESE,102,0.0,1.0,100,0.00,,,0.01,Wunderground v.1.15,2013-07-01 14:24:00,
2013-07-01 10:29:00,72.3,72.3,30.00,ESE,102,0.0,1.0,100,0.00,,,0.01,Wunderground v.1.15,2013-07-01 14:29:00,
2013-07-01 10:30:00,72.3,72.3,30.00,ESE,113,0.0,-999.0,100,0.00,,,0.41,Wunderground v.1.15,2013-07-01 14:30:00,
2013-07-01 10:35:00,72.4,72.4,30.00,ESE,113,0.0,-999.0,100,0.00,,,0.41,Wunderground v.1.15,2013-07-01 14:35:00,
2013-07-01 10:38:00,72.5,73.0,30.00,ESE,102,0.0,-999.0,100,-99.99,,,0.01,weatherlink.com 1.10,2013-07-01 14:38:00,
2013-07-01 10:40:00,72.5,72.5,29.99,N/A,-737280,0.0,-999.0,100,0.00,,,0.41,Wunderground v.1.15,2013-07-01 14:40:00,
2013-07-01 10:45:00,72.6,72.6,30.00,N/A,-737280,0.0,-999.0,100,0.00,,,0.41,Wunderground v.1.15,2013-07-01 14:45:00,
2013-07-01 10:50:00,72.6,72.6,30.00,ESE,113,0.0,-999.0,100,0.00,,,0.41,Wunderground v.1.15,2013-07-01 14:50:00,
2013-07-01 10:55:00,72.6,72.6,30.00,ESE,113,0.0,-999.0,100,0.00,,,0.41,Wunderground v.1.15,2013-07-01 14:55:00,
2013-07-01 11:00:00,72.8,72.8,30.00,ESE,113,0.0,-999.0,100,0.00,,,0.41,Wunderground v.1.15,2013-07-01 15:00:00,
2013-07-01 11:05:00,73.1,73.1,30.00,South,180,1.0,-999.0,100,0.00,,,0.41,Wunderground v.1.15,2013-07-01 15:05:00,
2013-07-01 11:10:00,73.3,73.3,30.00,SW,225,0.0,-999.0,100,0.00,,,0.41,Wunderground v.1.15,2013-07-01 15:10:00,
2013-07-01 11:15:00,73.5,73.5,30.00,SSE,158,0.0,-999.0,100,0.00,,,0.41,Wunderground v.1.15,2013-07-01 15:15:00,
2013-07-01 11:20:00,73.6,73.6,30.00,SSE,158,0.0,-999.0,100,0.00,,,0.41,Wunderground v.1.15,2013-07-01 15:20:00,
2013-07-01 11:25:00,73.7,73.7,30.00,SW,225,0.0,-999.0,100,0.00,,,0.41,Wunderground v.1.15,2013-07-01 15:25:00,
2013-07-01 11:30:00,73.7,73.7,30.00,SW,225,0.0,-999.0,100,0.00,,,0.41,Wunderground v.1.15,2013-07-01 15:30:00,
2013-07-01 11:35:00,73.8,73.8,30.00,SW,225,0.0,-999.0,100,0.00,,,0.41,Wunderground v.1.15,2013-07-01 15:35:00,
2013-07-01 11:40:00,73.9,73.9,30.01,SW,225,0.0,-999.0,100,0.00,,,0.41,Wunderground v.1.15,2013-07-01 15:40:00,
2013-07-01 11:45:00,74.0,74.0,30.01,SSW,203,1.0,-999.0,100,0.00,,,0.41,Wunderground v.1.15,2013-07-01 15:45:00,
2013-07-01 11:50:00,74.0,74.0,30.01,South,180,1.0,-999.0,100,0.00,,,0.41,Wunderground v.1.15,2013-07-01 15:50:00,
2013-07-01 11:55:00,74.0,74.0,30.01,SW,225,0.0,-999.0,100,0.00,,,0.41,Wunderground v.1.15,2013-07-01 15:55:00,
2013-07-01 12:00:00,74.1,74.1,30.01,WSW,248,0.0,-999.0,100,0.00,,,0.41,Wunderground v.1.15,2013-07-01 16:00:00,
2013-07-01 12:05:00,74.1,74.1,30.01,SSW,203,0.0,-999.0,100,0.00,,,0.41,Wunderground v.1.15,2013-07-01 16:05:00,
2013-07-01 12:10:00,74.1,73.8,30.01,SSW,203,0.0,-999.0,99,0.00,,,0.41,Wunderground v.1.15,2013-07-01 16:10:00,
2013-07-01 12:15:00,74.1,73.8,30.01,SSW,203,0.0,-999.0,99,0.00,,,0.41,Wunderground v.1.15,2013-07-01 16:15:00,
2013-07-01 12:20:00,74.2,73.9,30.00,SSW,203,1.0,-999.0,99,0.00,,,0.41,Wunderground v.1.15,2013-07-01 16:20:00,
2013-07-01 12:25:00,74.3,74.0,30.00,South,180,1.0,-999.0,99,0.00,,,0.41,Wunderground v.1.15,2013-07-01 16:25:00,
2013-07-01 12:30:00,74.5,74.5,30.00,SSW,203,1.0,-999.0,100,0.00,,,0.41,Wunderground v.1.15,2013-07-01 16:30:00,
2013-07-01 12:35:00,74.8,74.8,30.00,SSW,203,0.0,-999.0,100,0.00,,,0.41,Wunderground v.1.15,2013-07-01 16:35:00,
2013-07-01 12:40:00,74.9,74.9,30.00,SE,135,2.0,-999.0,100,0.00,,,0.41,Wunderground v.1.15,2013-07-01 16:40:00,
2013-07-01 12:45:00,74.8,74.5,30.00,SW,225,1.0,-999.0,99,0.00,,,0.41,Wunderground v.1.15,2013-07-01 16:45:00,
2013-07-01 12:50:00,74.8,74.5,30.00,SW,225,1.0,-999.0,99,0.00,,,0.41,Wunderground v.1.15,2013-07-01 16:50:00,
2013-07-01 12:55:00,74.9,74.6,30.00,South,180,1.0,-999.0,99,0.00,,,0.41,Wunderground v.1.15,2013-07-01 16:55:00,
2013-07-01 13:00:00,75.0,74.7,30.00,South,180,2.0,-999.0,99,0.00,,,0.41,Wunderground v.1.15,2013-07-01 17:00:00,
2013-07-01 13:05:00,75.1,74.8,30.00,SSE,158,1.0,-999.0,99,0.00,,,0.41,Wunderground v.1.15,2013-07-01 17:05:00,
2013-07-01 13:10:00,75.2,74.9,30.00,SSE,158,1.0,-999.0,99,0.00,,,0.41,Wunderground v.1.15,2013-07-01 17:10:00,
2013-07-01 13:15:00,75.2,74.9,30.00,SSE,158,2.0,-999.0,99,0.00,,,0.41,Wunderground v.1.15,2013-07-01 17:15:00,
2013-07-01 13:20:00,75.2,74.9,30.00,SW,225,1.0,-999.0,99,0.00,,,0.41,Wunderground v.1.15,2013-07-01 17:20:00,
2013-07-01 13:25:00,75.2,74.9,30.00,South,180,1.0,-999.0,99,0.00,,,0.41,Wunderground v.1.15,2013-07-01 17:25:00,
2013-07-01 13:30:00,75.5,75.2,30.00,SW,225,1.0,-999.0,99,0.00,,,0.41,Wunderground v.1.15,2013-07-01 17:30:00,
2013-07-01 13:35:00,75.9,75.6,30.00,SSW,203,1.0,-999.0,99,0.00,,,0.41,Wunderground v.1.15,2013-07-01 17:35:00,
2013-07-01 13:40:00,76.1,75.5,30.00,South,180,2.0,-999.0,98,0.00,,,0.41,Wunderground v.1.15,2013-07-01 17:40:00,
2013-07-01 13:45:00,76.0,75.1,30.00,SSE,158,2.0,-999.0,97,0.00,,,0.41,Wunderground v.1.15,2013-07-01 17:45:00,
2013-07-01 13:50:00,75.8,74.9,30.00,SW,225,1.0,-999.0,97,0.00,,,0.41,Wunderground v.1.15,2013-07-01 17:50:00,
2013-07-01 13:55:00,75.7,74.8,30.00,ESE,113,0.0,-999.0,97,0.00,,,0.41,Wunderground v.1.15,2013-07-01 17:55:00,
2013-07-01 14:00:00,75.7,74.8,30.00,SSE,158,1.0,-999.0,97,0.00,,,0.41,Wunderground v.1.15,2013-07-01 18:00:00,
2013-07-01 14:05:00,75.8,74.9,30.00,South,180,1.0,-999.0,97,0.00,,,0.41,Wunderground v.1.15,2013-07-01 18:05:00,
2013-07-01 14:10:00,75.9,75.0,30.00,South,180,1.0,-999.0,97,0.00,,,0.41,Wunderground v.1.15,2013-07-01 18:10:00,
2013-07-01 14:15:00,75.9,74.7,30.00,South,180,1.0,-999.0,96,0.00,,,0.41,Wunderground v.1.15,2013-07-01 18:15:00,
2013-07-01 14:20:00,76.0,74.8,30.00,SW,225,1.0,-999.0,96,0.00,,,0.41,Wunderground v.1.15,2013-07-01 18:20:00,
2013-07-01 14:25:00,76.0,74.8,30.00,SE,135,3.0,-999.0,96,0.00,,,0.41,Wunderground v.1.15,2013-07-01 18:25:00,
2013-07-01 14:30:00,76.0,74.8,30.00,SSE,158,2.0,-999.0,96,0.00,,,0.41,Wunderground v.1.15,2013-07-01 18:30:00,
2013-07-01 14:35:00,75.9,74.4,30.00,SSW,203,1.0,-999.0,95,0.00,,,0.41,Wunderground v.1.15,2013-07-01 18:35:00,
2013-07-01 14:40:00,75.9,74.7,30.00,SW,225,2.0,-999.0,96,0.00,,,0.41,Wunderground v.1.15,2013-07-01 18:40:00,
2013-07-01 14:45:00,76.2,75.0,30.00,SSW,203,1.0,-999.0,96,0.00,,,0.41,Wunderground v.1.15,2013-07-01 18:45:00,
2013-07-01 14:50:00,76.4,74.9,30.00,SE,135,2.0,-999.0,95,0.00,,,0.41,Wunderground v.1.15,2013-07-01 18:50:00,
2013-07-01 14:55:00,76.5,74.6,30.00,SE,135,2.0,-999.0,94,0.00,,,0.41,Wunderground v.1.15,2013-07-01 18:55:00,
2013-07-01 15:00:00,76.5,74.6,30.00,South,180,1.0,-999.0,94,0.00,,,0.41,Wunderground v.1.15,2013-07-01 19:00:00,
2013-07-01 15:05:00,76.5,74.6,30.01,South,180,0.0,-999.0,94,0.00,,,0.41,Wunderground v.1.15,2013-07-01 19:05:00,
2013-07-01 15:10:00,76.4,74.9,30.01,SW,225,1.0,-999.0,95,0.00,,,0.41,Wunderground v.1.15,2013-07-01 19:10:00,
2013-07-01 15:15:00,76.4,74.9,30.00,SW,225,0.0,-999.0,95,0.02,,,0.41,Wunderground v.1.15,2013-07-01 19:15:00,
2013-07-01 15:20:00,76.2,74.7,30.00,SW,225,1.0,-999.0,95,0.02,,,0.41,Wunderground v.1.15,2013-07-01 19:20:00,
2013-07-01 15:25:00,76.0,74.5,30.01,SSE,158,1.0,-999.0,95,0.03,,,0.41,Wunderground v.1.15,2013-07-01 19:25:00,
2013-07-01 15:30:00,75.8,74.6,30.02,SSW,203,1.0,-999.0,96,0.04,,,0.41,Wunderground v.1.15,2013-07-01 19:30:00,
2013-07-01 15:35:00,75.5,74.0,30.01,SE,135,1.0,-999.0,95,0.15,,,0.41,Wunderground v.1.15,2013-07-01 19:35:00,
2013-07-01 15:40:00,75.1,73.9,30.01,SE,135,0.0,-999.0,96,0.24,,,0.41,Wunderground v.1.15,2013-07-01 19:40:00,
2013-07-01 15:45:00,74.9,73.7,30.01,SSW,203,1.0,-999.0,96,0.25,,,0.41,Wunderground v.1.15,2013-07-01 19:45:00,
2013-07-01 15:50:00,74.7,73.5,30.02,SSE,158,2.0,-999.0,96,0.27,,,0.41,Wunderground v.1.15,2013-07-01 19:50:00,
2013-07-01 15:55:00,74.4,73.2,30.03,SSE,158,1.0,-999.0,96,0.29,,,0.41,Wunderground v.1.15,2013-07-01 19:55:00,
2013-07-01 16:00:00,74.0,72.8,30.02,SE,135,1.0,-999.0,96,0.32,,,0.41,Wunderground v.1.15,2013-07-01 20:00:00,
2013-07-01 16:05:00,73.7,72.5,30.02,NNE,23,0.0,-999.0,96,0.36,,,0.41,Wunderground v.1.15,2013-07-01 20:05:00,
2013-07-01 16:10:00,73.4,72.2,30.02,SSE,158,1.0,-999.0,96,0.38,,,0.41,Wunderground v.1.15,2013-07-01 20:10:00,
2013-07-01 16:15:00,73.1,72.2,30.03,SSE,158,0.0,-999.0,97,0.36,,,0.41,Wunderground v.1.15,2013-07-01 20:15:00,
2013-07-01 16:20:00,73.0,72.1,30.03,SE,135,0.0,-999.0,97,0.36,,,0.41,Wunderground v.1.15,2013-07-01 20:20:00,
2013-07-01 16:25:00,72.8,71.9,30.03,South,180,0.0,-999.0,97,0.37,,,0.41,Wunderground v.1.15,2013-07-01 20:25:00,
2013-07-01 16:30:00,72.7,71.8,30.02,SSW,203,0.0,-999.0,97,0.36,,,0.41,Wunderground v.1.15,2013-07-01 20:30:00,
2013-07-01 16:35:00,72.7,72.1,30.02,N/A,-737280,0.0,-999.0,98,0.25,,,0.41,Wunderground v.1.15,2013-07-01 20:35:00,
2013-07-01 16:40:00,72.8,72.2,30.02,N/A,-737280,0.0,-999.0,98,0.16,,,0.41,Wunderground v.1.15,2013-07-01 20:40:00,
2013-07-01 16:45:00,72.8,72.2,30.02,SSW,203,0.0,-999.0,98,0.15,,,0.41,Wunderground v.1.15,2013-07-01 20:45:00,
2013-07-01 16:50:00,72.8,72.2,30.02,N/A,-737280,0.0,-999.0,98,0.13,,,0.41,Wunderground v.1.15,2013-07-01 20:50:00,
2013-07-01 16:55:00,72.8,72.2,30.01,N/A,-737280,0.0,-999.0,98,0.11,,,0.41,Wunderground v.1.15,2013-07-01 20:55:00,
2013-07-01 17:00:00,72.7,72.1,30.01,N/A,-737280,0.0,-999.0,98,0.08,,,0.41,Wunderground v.1.15,2013-07-01 21:00:00,
2013-07-01 17:05:00,72.7,72.1,30.01,N/A,-737280,0.0,-999.0,98,0.04,,,0.41,Wunderground v.1.15,2013-07-01 21:05:00,
2013-07-01 17:10:00,72.7,72.1,30.01,N/A,-737280,0.0,-999.0,98,0.02,,,0.41,Wunderground v.1.15,2013-07-01 21:10:00,
2013-07-01 17:15:00,72.8,72.2,30.01,N/A,-737280,0.0,-999.0,98,0.02,,,0.41,Wunderground v.1.15,2013-07-01 21:15:00,
2013-07-01 17:20:00,72.9,72.3,30.01,N/A,-737280,0.0,-999.0,98,0.02,,,0.41,Wunderground v.1.15,2013-07-01 21:20:00,
2013-07-01 17:25:00,73.0,72.4,30.00,N/A,-737280,0.0,-999.0,98,0.00,,,0.41,Wunderground v.1.15,2013-07-01 21:25:00,
2013-07-01 17:30:00,73.0,72.4,30.01,SSW,203,0.0,-999.0,98,0.00,,,0.41,Wunderground v.1.15,2013-07-01 21:30:00,
2013-07-01 17:35:00,73.0,72.4,30.00,SSW,203,0.0,-999.0,98,0.00,,,0.41,Wunderground v.1.15,2013-07-01 21:35:00,
2013-07-01 17:40:00,73.0,72.4,30.01,SSW,203,0.0,-999.0,98,0.00,,,0.41,Wunderground v.1.15,2013-07-01 21:40:00,
2013-07-01 17:45:00,73.0,72.4,30.00,SSW,203,0.0,-999.0,98,0.00,,,0.41,Wunderground v.1.15,2013-07-01 21:45:00,
2013-07-01 17:50:00,73.0,72.4,30.00,SSW,203,0.0,-999.0,98,0.00,,,0.41,Wunderground v.1.15,2013-07-01 21:50:00,
2013-07-01 17:55:00,72.9,72.3,30.00,SSW,203,0.0,-999.0,98,0.00,,,0.41,Wunderground v.1.15,2013-07-01 21:55:00,
2013-07-01 18:00:00,72.9,72.3,30.00,SSW,203,0.0,-999.0,98,0.00,,,0.41,Wunderground v.1.15,2013-07-01 22:00:00,
2013-07-01 18:05:00,72.9,72.3,30.00,SSW,203,0.0,-999.0,98,0.00,,,0.41,Wunderground v.1.15,2013-07-01 22:05:00,
2013-07-01 18:10:00,73.0,72.4,30.00,N/A,-737280,0.0,-999.0,98,0.00,,,0.41,Wunderground v.1.15,2013-07-01 22:10:00,
2013-07-01 18:15:00,73.0,72.4,30.01,N/A,-737280,0.0,-999.0,98,0.00,,,0.41,Wunderground v.1.15,2013-07-01 22:15:00,
2013-07-01 18:20:00,73.0,72.4,30.01,SSW,203,0.0,-999.0,98,0.00,,,0.41,Wunderground v.1.15,2013-07-01 22:20:00,
2013-07-01 18:25:00,73.0,72.4,30.01,SSW,203,1.0,-999.0,98,0.00,,,0.41,Wunderground v.1.15,2013-07-01 22:25:00,
2013-07-01 18:30:00,72.9,72.3,30.02,SSW,203,0.0,-999.0,98,0.00,,,0.41,Wunderground v.1.15,2013-07-01 22:30:00,
2013-07-01 18:35:00,72.8,72.0,30.02,South,190,1.0,-999.0,98,-99.99,,,0.41,weatherlink.com 1.10,2013-07-01 22:35:00,
2013-07-01 18:40:00,72.7,72.1,30.02,South,180,0.0,-999.0,98,0.00,,,0.41,Wunderground v.1.15,2013-07-01 22:40:00,
2013-07-01 18:45:00,72.7,72.1,30.02,South,180,0.0,-999.0,98,0.00,,,0.41,Wunderground v.1.15,2013-07-01 22:45:00,
2013-07-01 18:50:00,72.5,71.9,30.03,South,180,0.0,-999.0,98,0.00,,,0.41,Wunderground v.1.15,2013-07-01 22:50:00,
2013-07-01 18:55:00,72.4,71.8,30.03,SSW,203,0.0,-999.0,98,0.00,,,0.41,Wunderground v.1.15,2013-07-01 22:55:00,
2013-07-01 19:00:00,72.1,71.2,30.03,SSW,203,0.0,-999.0,97,0.00,,,0.41,Wunderground v.1.15,2013-07-01 23:00:00,
2013-07-01 19:05:00,72.0,71.4,30.03,WSW,248,0.0,-999.0,98,0.00,,,0.41,Wunderground v.1.15,2013-07-01 23:05:00,
2013-07-01 19:10:00,71.9,71.3,30.03,WSW,248,0.0,-999.0,98,0.00,,,0.41,Wunderground v.1.15,2013-07-01 23:10:00,
2013-07-01 19:15:00,71.8,71.2,30.04,WSW,248,0.0,-999.0,98,0.00,,,0.41,Wunderground v.1.15,2013-07-01 23:15:00,
2013-07-01 19:20:00,71.8,71.2,30.04,WSW,248,0.0,-999.0,98,0.00,,,0.41,Wunderground v.1.15,2013-07-01 23:20:00,
2013-07-01 19:25:00,71.8,71.2,30.04,N/A,-737280,0.0,-999.0,98,0.00,,,0.41,Wunderground v.1.15,2013-07-01 23:25:00,
2013-07-01 19:30:00,71.8,71.2,30.04,WSW,248,0.0,-999.0,98,0.00,,,0.41,Wunderground v.1.15,2013-07-01 23:30:00,
2013-07-01 19:35:00,71.8,71.2,30.04,N/A,-737280,0.0,-999.0,98,0.00,,,0.41,Wunderground v.1.15,2013-07-01 23:35:00,
2013-07-01 19:40:00,71.8,71.5,30.04,N/A,-737280,0.0,-999.0,99,0.00,,,0.41,Wunderground v.1.15,2013-07-01 23:40:00,
2013-07-01 19:45:00,71.8,71.5,30.05,N/A,-737280,0.0,-999.0,99,0.00,,,0.41,Wunderground v.1.15,2013-07-01 23:45:00,
2013-07-01 19:50:00,71.8,71.5,30.05,SSW,203,0.0,-999.0,99,0.00,,,0.41,Wunderground v.1.15,2013-07-01 23:50:00,
2013-07-01 19:55:00,71.9,71.6,30.05,SSW,203,0.0,-999.0,99,0.00,,,0.41,Wunderground v.1.15,2013-07-01 23:55:00,
2013-07-01 20:00:00,71.9,71.6,30.06,SSW,203,0.0,-999.0,99,0.00,,,0.41,Wunderground v.1.15,2013-07-02 00:00:00,
2013-07-01 20:05:00,71.9,71.6,30.06,East,90,0.0,-999.0,99,0.00,,,0.41,Wunderground v.1.15,2013-07-02 00:05:00,
2013-07-01 20:10:00,72.0,71.7,30.06,South,180,1.0,-999.0,99,0.00,,,0.41,Wunderground v.1.15,2013-07-02 00:10:00,
2013-07-01 20:15:00,72.1,71.8,30.06,South,180,0.0,-999.0,99,0.00,,,0.41,Wunderground v.1.15,2013-07-02 00:15:00,
2013-07-01 20:20:00,72.1,71.8,30.06,SSW,203,1.0,-999.0,99,0.00,,,0.41,Wunderground v.1.15,2013-07-02 00:20:00,
2013-07-01 20:25:00,72.1,71.8,30.06,SW,225,0.0,-999.0,99,0.00,,,0.41,Wunderground v.1.15,2013-07-02 00:25:00,
2013-07-01 20:30:00,72.1,71.8,30.06,SW,225,0.0,-999.0,99,0.00,,,0.41,Wunderground v.1.15,2013-07-02 00:30:00,
2013-07-01 20:35:00,72.2,71.9,30.06,SW,225,0.0,-999.0,99,0.00,,,0.41,Wunderground v.1.15,2013-07-02 00:35:00,
2013-07-01 20:40:00,72.3,72.0,30.06,SW,225,0.0,-999.0,99,0.00,,,0.41,Wunderground v.1.15,2013-07-02 00:40:00,
2013-07-01 20:45:00,72.3,72.0,30.06,SW,225,0.0,-999.0,99,0.00,,,0.41,Wunderground v.1.15,2013-07-02 00:45:00,
2013-07-01 20:50:00,72.3,72.0,30.06,SW,225,0.0,-999.0,99,0.00,,,0.41,Wunderground v.1.15,2013-07-02 00:50:00,
2013-07-01 20:55:00,72.4,72.1,30.06,SSW,203,0.0,-999.0,99,0.00,,,0.41,Wunderground v.1.15,2013-07-02 00:55:00,
2013-07-01 21:00:00,72.4,72.1,30.06,South,180,1.0,-999.0,99,0.00,,,0.41,Wunderground v.1.15,2013-07-02 01:00:00,
2013-07-01 21:05:00,72.4,72.1,30.06,SSW,203,1.0,-999.0,99,0.00,,,0.41,Wunderground v.1.15,2013-07-02 01:05:00,
2013-07-01 21:10:00,72.5,72.2,30.06,SW,225,1.0,-999.0,99,0.00,,,0.41,Wunderground v.1.15,2013-07-02 01:10:00,
2013-07-01 21:15:00,72.5,72.2,30.06,South,180,0.0,-999.0,99,0.00,,,0.41,Wunderground v.1.15,2013-07-02 01:15:00,
2013-07-01 21:20:00,72.6,72.3,30.06,South,180,1.0,-999.0,99,0.00,,,0.41,Wunderground v.1.15,2013-07-02 01:20:00,
2013-07-01 21:25:00,72.6,72.3,30.06,South,180,0.0,-999.0,99,0.00,,,0.41,Wunderground v.1.15,2013-07-02 01:25:00,
2013-07-01 21:30:00,72.5,72.2,30.06,South,180,0.0,-999.0,99,0.00,,,0.41,Wunderground v.1.15,2013-07-02 01:30:00,
2013-07-01 21:35:00,72.5,72.2,30.07,South,180,0.0,-999.0,99,0.00,,,0.41,Wunderground v.1.15,2013-07-02 01:35:00,
2013-07-01 21:40:00,72.5,72.2,30.07,South,180,0.0,-999.0,99,0.00,,,0.41,Wunderground v.1.15,2013-07-02 01:40:00,
2013-07-01 21:45:00,72.5,72.2,30.07,South,180,0.0,-999.0,99,0.00,,,0.41,Wunderground v.1.15,2013-07-02 01:45:00,
2013-07-01 21:50:00,72.5,72.2,30.07,South,180,0.0,-999.0,99,0.00,,,0.41,Wunderground v.1.15,2013-07-02 01:50:00,
2013-07-01 21:55:00,72.6,72.3,30.07,South,180,0.0,-999.0,99,0.00,,,0.41,Wunderground v.1.15,2013-07-02 01:55:00,
2013-07-01 22:00:00,72.5,72.2,30.07,South,180,0.0,-999.0,99,0.00,,,0.41,Wunderground v.1.15,2013-07-02 02:00:00,
2013-07-01 22:05:00,72.5,72.2,30.07,South,180,0.0,-999.0,99,0.00,,,0.41,Wunderground v.1.15,2013-07-02 02:05:00,
2013-07-01 22:10:00,72.5,72.2,30.08,SSW,203,0.0,-999.0,99,0.00,,,0.41,Wunderground v.1.15,2013-07-02 02:10:00,
2013-07-01 22:15:00,72.6,72.3,30.08,SSW,203,0.0,-999.0,99,0.00,,,0.41,Wunderground v.1.15,2013-07-02 02:15:00,
2013-07-01 22:20:00,72.6,72.3,30.08,ENE,68,0.0,-999.0,99,0.00,,,0.41,Wunderground v.1.15,2013-07-02 02:20:00,
2013-07-01 22:25:00,72.6,72.3,30.08,SE,135,0.0,-999.0,99,0.00,,,0.41,Wunderground v.1.15,2013-07-02 02:25:00,
2013-07-01 22:30:00,72.6,72.3,30.08,SSE,158,0.0,-999.0,99,0.00,,,0.41,Wunderground v.1.15,2013-07-02 02:30:00,
2013-07-01 22:35:00,72.6,72.3,30.08,SW,225,1.0,-999.0,99,0.00,,,0.41,Wunderground v.1.15,2013-07-02 02:35:00,
2013-07-01 22:40:00,72.6,72.3,30.07,SW,225,0.0,-999.0,99,0.00,,,0.41,Wunderground v.1.15,2013-07-02 02:40:00,
2013-07-01 22:45:00,72.6,72.3,30.08,SE,135,0.0,-999.0,99,0.00,,,0.41,Wunderground v.1.15,2013-07-02 02:45:00,
2013-07-01 22:50:00,72.6,72.3,30.08,SE,135,0.0,-999.0,99,0.00,,,0.41,Wunderground v.1.15,2013-07-02 02:50:00,
2013-07-01 22:55:00,72.5,72.2,30.07,SE,135,0.0,-999.0,99,0.00,,,0.41,Wunderground v.1.15,2013-07-02 02:55:00,
2013-07-01 23:00:00,72.5,72.2,30.08,SE,135,0.0,-999.0,99,0.00,,,0.41,Wunderground v.1.15,2013-07-02 03:00:00,
2013-07-01 23:05:00,72.5,72.2,30.07,SE,135,0.0,-999.0,99,0.00,,,0.41,Wunderground v.1.15,2013-07-02 03:05:00,
2013-07-01 23:10:00,72.5,72.2,30.08,N/A,-737280,0.0,-999.0,99,0.00,,,0.41,Wunderground v.1.15,2013-07-02 03:10:00,
2013-07-01 23:15:00,72.5,72.2,30.08,N/A,-737280,0.0,-999.0,99,0.00,,,0.41,Wunderground v.1.15,2013-07-02 03:15:00,
2013-07-01 23:20:00,72.5,72.2,30.08,SE,135,0.0,-999.0,99,0.00,,,0.41,Wunderground v.1.15,2013-07-02 03:20:00,
2013-07-01 23:25:00,72.5,72.2,30.08,N/A,-737280,0.0,-999.0,99,0.00,,,0.41,Wunderground v.1.15,2013-07-02 03:25:00,
2013-07-01 23:30:00,72.5,72.2,30.08,South,180,0.0,-999.0,99,0.00,,,0.41,Wunderground v.1.15,2013-07-02 03:30:00,
2013-07-01 23:35:00,72.4,72.1,30.08,SSW,203,1.0,-999.0,99,0.00,,,0.41,Wunderground v.1.15,2013-07-02 03:35:00,
2013-07-01 23:40:00,72.4,72.1,30.08,SSW,203,0.0,-999.0,99,0.00,,,0.41,Wunderground v.1.15,2013-07-02 03:40:00,
2013-07-01 23:45:00,72.4,72.1,30.08,SSW,203,0.0,-999.0,99,0.00,,,0.41,Wunderground v.1.15,2013-07-02 03:45:00,
2013-07-01 23:50:00,72.3,72.0,30.08,SSW,203,0.0,-999.0,99,0.00,,,0.41,Wunderground v.1.15,2013-07-02 03:50:00,
2013-07-01 23:55:00,72.3,72.0,30.08,N/A,-737280,0.0,-999.0,99,0.00,,,0.41,Wunderground v.1.15,2013-07-02 03:55:00,